DLH441 EDDF-EHAM

Flight info

Callsign DLH441
Flight time 0h 51m
Altitude 24000
Route MARUN8M/25C MARUN Y152 ARPEG Z850 ABILU DCT NORKU
Aircraft A320/M-SDE3FGHIRWY/LB1

Departure

Time 2026-04-17 12:37
Airport Frankfurt Main Airport (EDDF)

Arrival

Time 2026-04-17 13:29
Airport Amsterdam Airport Schiphol (EHAM)
Time Latitude Longitude Altitude Speed Heading
2026-04-17 12:13 50.04930 8.57884 358 ft 0 kts 22°
2026-04-17 12:25 50.04926 8.57882 358 ft 1 kts 22°
2026-04-17 12:25 50.04909 8.57869 360 ft 2 kts 25°
2026-04-17 12:25 50.04891 8.57856 358 ft 2 kts 21°
2026-04-17 12:25 50.04872 8.57846 360 ft 2 kts 21°
2026-04-17 12:26 50.04856 8.57834 358 ft 2 kts 53°
2026-04-17 12:26 50.04851 8.57825 357 ft 1 kts 112°
2026-04-17 12:26 50.04852 8.57823 357 ft 1 kts 113°
2026-04-17 12:28 50.04852 8.57824 356 ft 0 kts 113°
2026-04-17 12:28 50.04851 8.57825 357 ft 0 kts 113°
2026-04-17 12:31 50.04851 8.57826 357 ft 1 kts 113°
2026-04-17 12:31 50.04832 8.57879 360 ft 10 kts 131°
2026-04-17 12:31 50.04759 8.57935 352 ft 13 kts 155°
2026-04-17 12:32 50.04672 8.57982 352 ft 14 kts 161°
2026-04-17 12:32 50.04579 8.58055 337 ft 17 kts 127°
2026-04-17 12:32 50.04599 8.58246 337 ft 20 kts 71°
2026-04-17 12:32 50.04647 8.58447 332 ft 16 kts 69°
2026-04-17 12:33 50.04644 8.58551 328 ft 0 kts 128°
2026-04-17 12:35 50.04642 8.58554 325 ft 2 kts 129°
2026-04-17 12:35 50.04605 8.58586 326 ft 9 kts 160°
2026-04-17 12:35 50.04532 8.58627 326 ft 12 kts 162°
2026-04-17 12:35 50.04481 8.58563 328 ft 11 kts 250°
2026-04-17 12:37 50.01509 8.49008 2501 ft 204 kts 211°
2026-04-17 12:37 50.00193 8.48185 3275 ft 205 kts 195°
2026-04-17 12:38 49.98792 8.47688 4018 ft 208 kts 192°
2026-04-17 12:38 49.97372 8.47248 4816 ft 209 kts 192°
2026-04-17 12:38 49.95941 8.46782 5583 ft 211 kts 193°
2026-04-17 12:38 49.94437 8.46208 5967 ft 234 kts 195°
2026-04-17 12:39 49.92821 8.45525 6614 ft 244 kts 196°
2026-04-17 12:39 49.91276 8.44414 7345 ft 249 kts 221°
2026-04-17 12:39 49.90302 8.42239 8117 ft 254 kts 252°
2026-04-17 12:39 49.90206 8.39501 8912 ft 260 kts 284°
2026-04-17 12:40 49.91083 8.37059 9730 ft 265 kts 316°
2026-04-17 12:40 49.92684 8.35581 10331 ft 279 kts 336°
2026-04-17 12:40 49.94548 8.34366 10606 ft 302 kts 336°
2026-04-17 12:40 49.96550 8.33073 10839 ft 326 kts 336°
2026-04-17 12:41 49.98714 8.31672 11135 ft 345 kts 336°
2026-04-17 12:41 50.00965 8.30208 11746 ft 352 kts 336°
2026-04-17 12:41 50.03297 8.28999 12459 ft 357 kts 348°
2026-04-17 12:41 50.05797 8.28743 13172 ft 362 kts
2026-04-17 12:42 50.08249 8.29531 13874 ft 367 kts 17°
2026-04-17 12:42 50.10689 8.30814 14500 ft 371 kts 17°
2026-04-17 12:42 50.13154 8.32114 15098 ft 374 kts 17°
2026-04-17 12:42 50.15641 8.33422 15670 ft 378 kts 17°
2026-04-17 12:43 50.18149 8.34740 16240 ft 382 kts 17°
2026-04-17 12:43 50.20646 8.36053 16811 ft 385 kts 17°
2026-04-17 12:43 50.23208 8.37404 17374 ft 389 kts 17°
2026-04-17 12:43 50.25790 8.38765 17932 ft 392 kts 17°
2026-04-17 12:44 50.28399 8.40140 18488 ft 396 kts 17°
2026-04-17 12:44 50.30992 8.41511 18953 ft 399 kts 17°
2026-04-17 12:44 50.33634 8.42933 19437 ft 402 kts 17°
2026-04-17 12:44 50.36286 8.44380 19947 ft 404 kts 17°
2026-04-17 12:45 50.38950 8.45846 20443 ft 406 kts 17°
2026-04-17 12:45 50.41628 8.47326 20924 ft 408 kts 17°
2026-04-17 12:45 50.44319 8.48810 21393 ft 411 kts 17°
2026-04-17 12:45 50.47002 8.50284 21852 ft 413 kts 17°
2026-04-17 12:46 50.49735 8.51723 22314 ft 415 kts 15°
2026-04-17 12:46 50.52501 8.53072 22767 ft 417 kts 14°
2026-04-17 12:46 50.54356 8.53940 23059 ft 418 kts 14°
2026-04-17 12:46 50.58084 8.55656 23648 ft 421 kts 13°
2026-04-17 12:47 50.59957 8.56520 23906 ft 423 kts 13°
2026-04-17 12:47 50.62793 8.57846 24149 ft 425 kts 13°
2026-04-17 12:47 50.65637 8.59197 24209 ft 428 kts 14°
2026-04-17 12:47 50.68502 8.60576 24215 ft 429 kts 14°
2026-04-17 12:48 50.71361 8.61961 24214 ft 429 kts 14°
2026-04-17 12:48 50.74194 8.63315 24210 ft 429 kts 11°
2026-04-17 12:48 50.77130 8.64003 24215 ft 424 kts 358°
2026-04-17 12:48 50.80056 8.63652 24218 ft 419 kts 346°
2026-04-17 12:49 50.82806 8.62350 24208 ft 415 kts 334°
2026-04-17 12:49 50.85331 8.60153 24209 ft 412 kts 323°
2026-04-17 12:49 50.87504 8.57163 24207 ft 410 kts 311°
2026-04-17 12:49 50.89341 8.53784 24206 ft 410 kts 309°
2026-04-17 12:50 50.91186 8.50331 24208 ft 409 kts 309°
2026-04-17 12:50 50.93024 8.46875 24197 ft 410 kts 309°
2026-04-17 12:50 50.94845 8.43445 24196 ft 410 kts 309°
2026-04-17 12:50 50.96694 8.39971 24193 ft 411 kts 309°
2026-04-17 12:51 50.98546 8.36499 24192 ft 411 kts 309°
2026-04-17 12:51 51.00403 8.33098 24192 ft 412 kts 313°
2026-04-17 12:51 51.02565 8.30075 24191 ft 414 kts 322°
2026-04-17 12:51 51.05014 8.27645 24198 ft 416 kts 328°
2026-04-17 12:52 51.07552 8.25401 24193 ft 416 kts 328°
2026-04-17 12:52 51.10075 8.23159 24194 ft 416 kts 328°
2026-04-17 12:52 51.12576 8.20930 24195 ft 416 kts 328°
2026-04-17 12:52 51.15110 8.18669 24191 ft 416 kts 328°
2026-04-17 12:53 51.17646 8.16405 24194 ft 416 kts 328°
2026-04-17 12:53 51.20153 8.14164 24193 ft 416 kts 328°
2026-04-17 12:53 51.22679 8.11901 24193 ft 416 kts 328°
2026-04-17 12:53 51.25213 8.09630 24188 ft 417 kts 328°
2026-04-17 12:54 51.27754 8.07348 24186 ft 417 kts 328°
2026-04-17 12:54 51.30264 8.05093 24195 ft 418 kts 328°
2026-04-17 12:54 51.32804 8.02809 24198 ft 418 kts 328°
2026-04-17 12:54 51.35346 8.00521 24201 ft 418 kts 328°
2026-04-17 12:55 51.37858 7.98260 24203 ft 418 kts 328°
2026-04-17 12:55 51.40391 7.95964 24204 ft 418 kts 326°
2026-04-17 12:55 51.42777 7.93332 24205 ft 415 kts 321°
2026-04-17 12:55 51.45108 7.90560 24205 ft 416 kts 321°
2026-04-17 12:56 51.47433 7.87788 24207 ft 416 kts 321°
2026-04-17 12:56 51.49759 7.85009 24208 ft 416 kts 321°
2026-04-17 12:56 51.52058 7.82266 24209 ft 416 kts 321°
2026-04-17 12:56 51.54384 7.79493 24210 ft 415 kts 321°
2026-04-17 12:57 51.56711 7.76713 24222 ft 415 kts 321°
2026-04-17 12:57 51.58997 7.73971 24220 ft 415 kts 321°
2026-04-17 12:57 51.61316 7.71186 24209 ft 415 kts 320°
2026-04-17 12:57 51.63636 7.68399 24205 ft 416 kts 320°
2026-04-17 12:58 51.65956 7.65609 24202 ft 416 kts 320°
2026-04-17 12:58 51.68295 7.62798 24201 ft 416 kts 321°
2026-04-17 12:58 51.70591 7.60034 24200 ft 417 kts 320°
2026-04-17 12:58 51.72921 7.57216 24200 ft 417 kts 320°
2026-04-17 12:59 51.75236 7.54410 24199 ft 417 kts 320°
2026-04-17 12:59 51.77559 7.51593 24197 ft 417 kts 320°
2026-04-17 12:59 51.79851 7.48812 24192 ft 417 kts 320°
2026-04-17 12:59 51.82172 7.45997 24206 ft 417 kts 320°
2026-04-17 13:00 51.84501 7.43174 24201 ft 417 kts 320°
2026-04-17 13:00 51.86820 7.40360 24191 ft 417 kts 320°
2026-04-17 13:00 51.89146 7.37535 24191 ft 417 kts 320°
2026-04-17 13:00 51.91469 7.34704 24190 ft 417 kts 320°
2026-04-17 13:01 51.93761 7.31903 24192 ft 417 kts 320°
2026-04-17 13:01 51.96093 7.29049 24192 ft 417 kts 320°
2026-04-17 13:01 51.98418 7.26203 24190 ft 417 kts 320°
2026-04-17 13:01 52.00705 7.23398 24189 ft 417 kts 320°
2026-04-17 13:02 52.03025 7.20543 24189 ft 417 kts 320°
2026-04-17 13:02 52.05344 7.17687 24190 ft 417 kts 320°
2026-04-17 13:02 52.07663 7.14832 24190 ft 417 kts 320°
2026-04-17 13:02 52.09945 7.12020 24193 ft 417 kts 320°
2026-04-17 13:03 52.12264 7.09161 24191 ft 417 kts 320°
2026-04-17 13:03 52.14582 7.06299 24193 ft 417 kts 320°
2026-04-17 13:03 52.16901 7.03432 24188 ft 417 kts 320°
2026-04-17 13:03 52.19210 7.00574 24198 ft 417 kts 320°
2026-04-17 13:04 52.21440 6.97578 24184 ft 415 kts 313°
2026-04-17 13:04 52.23331 6.94130 24199 ft 412 kts 306°
2026-04-17 13:04 52.25142 6.90481 24208 ft 413 kts 306°
2026-04-17 13:04 52.26957 6.86843 24201 ft 413 kts 306°
2026-04-17 13:05 52.28774 6.83207 24188 ft 412 kts 306°
2026-04-17 13:05 52.30575 6.79601 23973 ft 407 kts 306°
2026-04-17 13:05 52.32340 6.76064 23731 ft 403 kts 306°
2026-04-17 13:05 52.34108 6.72523 23130 ft 398 kts 306°
2026-04-17 13:06 52.35856 6.69017 22520 ft 395 kts 306°
2026-04-17 13:06 52.37593 6.65516 21821 ft 394 kts 306°
2026-04-17 13:06 52.39294 6.62083 21315 ft 389 kts 306°
2026-04-17 13:06 52.40992 6.58651 20828 ft 385 kts 306°
2026-04-17 13:07 52.42662 6.55267 20356 ft 380 kts 306°
2026-04-17 13:07 52.44313 6.51912 19888 ft 375 kts 304°
2026-04-17 13:07 52.45713 6.48359 19439 ft 367 kts 294°
2026-04-17 13:07 52.46665 6.44516 18997 ft 360 kts 283°
2026-04-17 13:08 52.47168 6.40520 18551 ft 355 kts 274°
2026-04-17 13:08 52.47369 6.36546 18059 ft 352 kts 272°
2026-04-17 13:08 52.47568 6.32546 17612 ft 348 kts 272°
2026-04-17 13:08 52.47767 6.28614 17139 ft 345 kts 272°
2026-04-17 13:09 52.47963 6.24707 16703 ft 342 kts 272°
2026-04-17 13:09 52.48156 6.20825 16242 ft 340 kts 272°
2026-04-17 13:09 52.48345 6.17007 15787 ft 339 kts 272°
2026-04-17 13:09 52.48531 6.13156 15316 ft 337 kts 272°
2026-04-17 13:10 52.48713 6.09312 14849 ft 336 kts 272°
2026-04-17 13:10 52.48893 6.05489 14367 ft 335 kts 272°
2026-04-17 13:10 52.49076 6.01675 13869 ft 335 kts 272°
2026-04-17 13:10 52.49258 5.97904 13366 ft 333 kts 272°
2026-04-17 13:11 52.49440 5.94112 12871 ft 331 kts 272°
2026-04-17 13:11 52.49618 5.90343 12375 ft 329 kts 272°
2026-04-17 13:11 52.49792 5.86597 11886 ft 328 kts 272°
2026-04-17 13:11 52.49960 5.82915 11392 ft 328 kts 272°
2026-04-17 13:12 52.50130 5.79166 10890 ft 327 kts 272°
2026-04-17 13:12 52.50460 5.71924 10508 ft 308 kts 271°
2026-04-17 13:12 52.50618 5.68485 10387 ft 297 kts 271°
2026-04-17 13:13 52.50767 5.65157 10265 ft 286 kts 271°
2026-04-17 13:13 52.50911 5.61924 10084 ft 279 kts 271°
2026-04-17 13:13 52.51051 5.58761 10021 ft 277 kts 271°
2026-04-17 13:13 52.51187 5.55612 9892 ft 278 kts 271°
2026-04-17 13:14 52.51320 5.52466 9538 ft 277 kts 271°
2026-04-17 13:14 52.51452 5.49317 9215 ft 275 kts 271°
2026-04-17 13:14 52.51585 5.46193 8902 ft 273 kts 271°
2026-04-17 13:14 52.51718 5.43073 8581 ft 272 kts 271°
2026-04-17 13:15 52.51849 5.39975 8265 ft 272 kts 271°
2026-04-17 13:15 52.51977 5.36922 7956 ft 271 kts 271°
2026-04-17 13:15 52.52106 5.33828 7628 ft 270 kts 271°
2026-04-17 13:15 52.52234 5.30750 7330 ft 270 kts 271°
2026-04-17 13:16 52.52361 5.27680 7059 ft 268 kts 271°
2026-04-17 13:16 52.52486 5.24662 6996 ft 269 kts 271°
2026-04-17 13:16 52.52612 5.21559 7005 ft 269 kts 271°
2026-04-17 13:16 52.52735 5.18531 7005 ft 270 kts 271°
2026-04-17 13:17 52.52857 5.15456 7007 ft 270 kts 271°
2026-04-17 13:17 52.52981 5.12370 7005 ft 270 kts 271°
2026-04-17 13:17 52.53102 5.09282 6699 ft 271 kts 271°
2026-04-17 13:17 52.53223 5.06170 6248 ft 272 kts 271°
2026-04-17 13:18 52.53344 5.03100 6027 ft 263 kts 271°
2026-04-17 13:18 52.53455 5.00260 5890 ft 243 kts 271°
2026-04-17 13:18 52.53562 4.97523 5732 ft 235 kts 269°
2026-04-17 13:18 52.53665 4.94862 5460 ft 232 kts 269°
2026-04-17 13:19 52.53766 4.92232 5154 ft 230 kts 269°
2026-04-17 13:19 52.53867 4.89624 4864 ft 228 kts 269°
2026-04-17 13:19 52.53785 4.87087 4585 ft 222 kts 254°
2026-04-17 13:19 52.53289 4.84709 4231 ft 221 kts 240°
2026-04-17 13:20 52.52400 4.82590 3676 ft 228 kts 224°
2026-04-17 13:20 52.51301 4.80744 3436 ft 223 kts 224°
2026-04-17 13:20 52.50296 4.78798 3118 ft 224 kts 240°
2026-04-17 13:20 52.49954 4.76364 2997 ft 213 kts 262°
2026-04-17 13:21 52.49664 4.74168 2965 ft 187 kts 237°
2026-04-17 13:21 52.48810 4.72713 2808 ft 174 kts 210°
2026-04-17 13:21 52.47866 4.71551 2636 ft 172 kts 233°
2026-04-17 13:21 52.47535 4.69662 2500 ft 178 kts 265°
2026-04-17 13:22 52.47622 4.67602 2343 ft 181 kts 271°
2026-04-17 13:22 52.47780 4.65572 2184 ft 181 kts 272°
2026-04-17 13:22 52.47954 4.63518 2067 ft 181 kts 274°
2026-04-17 13:22 52.48455 4.61615 1990 ft 189 kts 311°
2026-04-17 13:23 52.49636 4.60625 2021 ft 198 kts 351°
2026-04-17 13:23 52.50966 4.61030 1997 ft 201 kts 31°
2026-04-17 13:23 52.51876 4.62700 1990 ft 197 kts 72°
2026-04-17 13:23 52.52130 4.64878 2003 ft 194 kts 90°
2026-04-17 13:24 52.52211 4.67083 1995 ft 192 kts 92°
2026-04-17 13:24 52.52267 4.69275 1999 ft 192 kts 92°
2026-04-17 13:24 52.52103 4.71372 1985 ft 184 kts 122°
2026-04-17 13:24 52.51265 4.72854 2001 ft 176 kts 155°
2026-04-17 13:25 52.50127 4.73010 2013 ft 167 kts 201°
2026-04-17 13:25 52.49038 4.72328 2012 ft 168 kts 189°
2026-04-17 13:25 52.47870 4.72269 2007 ft 166 kts 185°
2026-04-17 13:25 52.46737 4.72160 1995 ft 164 kts 186°
2026-04-17 13:26 52.45601 4.72052 1868 ft 164 kts 186°
2026-04-17 13:26 52.44457 4.71946 1679 ft 163 kts 186°
2026-04-17 13:26 52.43318 4.71841 1461 ft 163 kts 185°
2026-04-17 13:26 52.42244 4.71744 1240 ft 145 kts 187°
2026-04-17 13:27 52.41279 4.71656 1060 ft 137 kts 187°
2026-04-17 13:27 52.40318 4.71567 881 ft 136 kts 186°
2026-04-17 13:27 52.39390 4.71481 700 ft 135 kts 186°
2026-04-17 13:27 52.38452 4.71395 526 ft 135 kts 186°
2026-04-17 13:28 52.37512 4.71309 335 ft 134 kts 186°
2026-04-17 13:28 52.36579 4.71229 119 ft 133 kts 185°
2026-04-17 13:28 52.35667 4.71158 12 ft 131 kts 185°
2026-04-17 13:28 52.34895 4.71070 -3 ft 87 kts 183°
2026-04-17 13:29 52.34463 4.71046 -6 ft 44 kts 172°
2026-04-17 13:29 52.34275 4.71163 -6 ft 19 kts 156°
2026-04-17 13:29 52.34164 4.71251 -6 ft 17 kts 155°
2026-04-17 13:29 52.34043 4.71276 -6 ft 18 kts 182°
2026-04-17 13:30 52.33924 4.71268 -6 ft 16 kts 183°
2026-04-17 13:30 52.33809 4.71258 -6 ft 17 kts 183°
2026-04-17 13:30 52.33687 4.71246 -6 ft 18 kts 184°
2026-04-17 13:30 52.33554 4.71231 -6 ft 20 kts 184°
2026-04-17 13:31 52.33411 4.71221 -6 ft 21 kts 182°
2026-04-17 13:31 52.33261 4.71224 -6 ft 21 kts 160°
2026-04-17 13:31 52.33156 4.71395 -6 ft 23 kts 128°
2026-04-17 13:31 52.33048 4.71589 -6 ft 23 kts 134°
2026-04-17 13:32 52.32995 4.71798 -6 ft 20 kts 90°
2026-04-17 13:32 52.32955 4.72001 -6 ft 19 kts 133°
2026-04-17 13:32 52.32894 4.72115 -6 ft 20 kts 130°
2026-04-17 13:32 52.32808 4.72291 -6 ft 20 kts 133°
2026-04-17 13:33 52.32714 4.72465 -6 ft 20 kts 131°
2026-04-17 13:33 52.32612 4.72625 -6 ft 21 kts 139°
2026-04-17 13:33 52.32496 4.72788 -6 ft 23 kts 139°
2026-04-17 13:33 52.32371 4.72963 -6 ft 24 kts 140°
2026-04-17 13:34 52.32240 4.73146 -6 ft 25 kts 138°
2026-04-17 13:34 52.32124 4.73312 -6 ft 16 kts 139°
2026-04-17 13:34 52.32062 4.73467 -6 ft 18 kts 102°
2026-04-17 13:34 52.32054 4.73662 -5 ft 17 kts 93°
2026-04-17 13:35 52.32047 4.73844 -4 ft 15 kts 94°
2026-04-17 13:35 52.32041 4.74010 -6 ft 15 kts 93°
2026-04-17 13:35 52.32036 4.74168 -6 ft 13 kts 93°
2026-04-17 13:35 52.32034 4.74304 -6 ft 10 kts 103°
2026-04-17 13:36 52.31979 4.74334 -6 ft 12 kts 177°
2026-04-17 13:36 52.31855 4.74323 -6 ft 22 kts 183°
2026-04-17 13:36 52.31698 4.74310 -6 ft 23 kts 183°
2026-04-17 13:36 52.31534 4.74295 -6 ft 24 kts 183°
2026-04-17 13:37 52.31401 4.74316 -6 ft 14 kts 130°
2026-04-17 13:37 52.31397 4.74422 -6 ft 11 kts 89°
2026-04-17 13:37 52.31402 4.74593 -6 ft 16 kts 85°
2026-04-17 13:37 52.31409 4.74767 -6 ft 14 kts 88°
2026-04-17 13:38 52.31412 4.74941 -6 ft 17 kts 88°
2026-04-17 13:38 52.31417 4.75148 -6 ft 20 kts 88°
2026-04-17 13:38 52.31424 4.75361 -6 ft 16 kts 90°
2026-04-17 13:38 52.31346 4.75456 -6 ft 16 kts 180°
2026-04-17 13:39 52.31282 4.75511 -6 ft 9 kts 91°
2026-04-17 13:39 52.31286 4.75592 -6 ft 1 kts 87°
2026-04-17 13:39 52.31286 4.75596 -6 ft 1 kts 87°
2026-04-17 13:39 52.31286 4.75598 -6 ft 1 kts 87°
2026-04-17 13:40 52.31286 4.75602 -6 ft 0 kts 87°